Change the Weather History Date:

Thursday, February 27, 2014

  Actual Average Record
Temperature  
Mean Temperature 26 °F -  
Max Temperature 33 °F 48 °F 67 °F (1977)
Min Temperature 18 °F 24 °F 10 °F (1968)
Degree Days  
Heating Degree Days 40    
Moisture  
Dew Point -4 °F    
Average Humidity 29    
Maximum Humidity 52    
Minimum Humidity 16    
Precipitation  
Precipitation 0.00 in - - ()
Sea Level Pressure  
Sea Level Pressure 29.74 in    
Wind  
Wind Speed 14 mph (WNW)    
Max Wind Speed 28 mph    
Max Gust Speed 40 mph    
Visibility 10 miles    
Events      
Averages and records for this station are not official NWS values.
T = Trace of Precipitation, MM = Missing Value Source: NWS Daily Summary

Daily Weather History Graph

Daily Weather History Graph

Search for Another Location

Airport or City:

Trip Planner

Search our weather history database for the weather conditions in past years. The results will help you decide how hot, cold, wet, or windy it might be!

Date:

Astronomy

Feb. 27, 2014 Rise Set
Actual Time 6:58 AM EST 6:18 PM EST
Civil Twilight 6:32 AM EST 6:44 PM EST
Nautical Twilight 6:03 AM EST 7:14 PM EST
Astronomical Twilight 5:33 AM EST 7:44 PM EST
Moon 5:28 AM EST (2/27) 4:43 PM EST (2/27)
Length of Visible Light 12h 11m
Length of Day
11h 19m
Waning Crescent, 4% of the Moon is Illuminated
Feb 27
Waning Crescent
Mar 1
New
Mar 8
First Quarter
Mar 16
Full
Mar 23
Last Quarter

Hourly Weather History & Observations

Time (EST) Temp. Windchill Dew Point Humidity Pressure Visibility Wind Dir Wind Speed Gust Speed Precip Events Conditions
12:15 AM 22.8 °F 10.9 °F 7.5 °F 52% 29.73 in 10.0 mi West 12.7 mph 25.3 mph N/A   Clear
12:35 AM 22.6 °F 9.6 °F 7.5 °F 52% 29.73 in 10.0 mi West 15.0 mph 20.7 mph N/A   Clear
12:55 AM 22.5 °F 10.5 °F 7.3 °F 52% 29.73 in 10.0 mi WNW 12.7 mph 20.7 mph N/A   Clear
1:15 AM 22.5 °F 8.0 °F 6.8 °F 51% 29.72 in 10.0 mi West 18.4 mph 23.0 mph N/A   Clear
1:35 AM 22.1 °F 12.0 °F 5.9 °F 50% 29.73 in 10.0 mi West 9.2 mph - N/A   Clear
1:55 AM 22.1 °F 12.8 °F 5.7 °F 49% 29.73 in 10.0 mi West 8.1 mph 19.6 mph N/A   Clear
2:15 AM 21.6 °F - 5.7 °F 51% 29.73 in 10.0 mi Calm Calm - N/A   Clear
2:35 AM 21.2 °F 12.6 °F 5.0 °F 50% 29.72 in 10.0 mi West 6.9 mph - N/A   Clear
2:55 AM 21.2 °F 12.6 °F 3.0 °F 46% 29.70 in 10.0 mi West 6.9 mph - N/A   Clear
3:15 AM 21.6 °F 9.3 °F 0.5 °F 40% 29.69 in 10.0 mi WNW 12.7 mph 18.4 mph N/A   Clear
3:35 AM 21.7 °F 10.2 °F -1.5 °F 36% 29.69 in 10.0 mi West 11.5 mph 18.4 mph N/A   Clear
3:55 AM 21.9 °F 9.2 °F -2.7 °F 34% 29.68 in 10.0 mi West 13.8 mph 19.6 mph N/A   Clear
4:15 AM 22.1 °F 10.0 °F -3.6 °F 32% 29.68 in 10.0 mi West 12.7 mph - N/A   Clear
4:35 AM 21.0 °F 9.9 °F -1.5 °F 37% 29.69 in 10.0 mi WNW 10.4 mph - N/A   Clear
4:55 AM 21.0 °F 12.4 °F -2.2 °F 36% 29.67 in 10.0 mi WNW 6.9 mph - N/A   Clear
5:15 AM 21.2 °F 8.9 °F -3.6 °F 34% 29.67 in 10.0 mi West 12.7 mph 19.6 mph N/A   Clear
5:35 AM 20.8 °F 6.8 °F -0.8 °F 39% 29.68 in 10.0 mi WNW 16.1 mph 26.5 mph N/A   Clear
5:55 AM 20.5 °F 10.0 °F -0.4 °F 40% 29.67 in 10.0 mi West 9.2 mph 19.6 mph N/A   Clear
6:15 AM 20.3 °F 7.7 °F -0.4 °F 40% 29.68 in 10.0 mi West 12.7 mph - N/A   Clear
6:35 AM 19.9 °F 6.7 °F 0.1 °F 42% 29.68 in 10.0 mi West 13.8 mph 21.9 mph N/A   Clear
6:55 AM 19.2 °F 4.7 °F 1.2 °F 46% 29.68 in 10.0 mi West 16.1 mph 25.3 mph N/A   Clear
7:15 AM 18.9 °F 3.8 °F 0.1 °F 44% 29.68 in 10.0 mi West 17.3 mph 21.9 mph N/A   Clear
7:35 AM 19.4 °F 6.0 °F -3.6 °F 36% 29.68 in 10.0 mi West 13.8 mph 27.6 mph N/A   Clear
7:55 AM 19.4 °F 3.6 °F -7.4 °F 30% 29.68 in 10.0 mi West 19.6 mph 31.1 mph N/A   Clear
8:15 AM 20.1 °F 5.9 °F -9.0 °F 27% 29.68 in 10.0 mi West 16.1 mph 29.9 mph N/A   Clear
8:35 AM 20.3 °F 2.6 °F -11.7 °F 24% 29.68 in 10.0 mi West 26.5 mph 39.1 mph N/A   Clear
8:55 AM 21.0 °F 3.9 °F -14.3 °F 20% 29.69 in 10.0 mi West 25.3 mph 34.5 mph N/A   Clear
9:15 AM 22.1 °F 5.4 °F -15.7 °F 18% 29.70 in 10.0 mi West 25.3 mph 35.7 mph N/A   Clear
9:35 AM 22.8 °F 6.7 °F -15.2 °F 18% 29.70 in 10.0 mi West 24.2 mph 33.4 mph N/A   Clear
9:55 AM 23.0 °F 6.0 °F -15.3 °F 18% 29.69 in 10.0 mi West 27.6 mph 36.8 mph N/A   Clear
10:15 AM 24.1 °F 8.0 °F -15.0 °F 17% 29.70 in 10.0 mi West 25.3 mph 40.3 mph N/A   Clear
10:35 AM 25.7 °F 10.5 °F -15.0 °F 16% 29.70 in 10.0 mi West 24.2 mph 39.1 mph N/A   Clear
10:55 AM 26.6 °F 12.4 °F -13.9 °F 17% 29.70 in 10.0 mi West 21.9 mph 39.1 mph N/A   Clear
11:15 AM 27.9 °F 13.1 °F -13.7 °F 16% 29.71 in 10.0 mi West 25.3 mph 36.8 mph N/A   Clear
11:35 AM 28.9 °F 14.8 °F -12.6 °F 16% 29.70 in 10.0 mi WNW 24.2 mph 39.1 mph N/A   Clear
11:55 AM 29.7 °F 15.2 °F -11.2 °F 17% 29.69 in 10.0 mi West 26.5 mph 36.8 mph N/A   Clear
12:15 PM 30.4 °F 18.4 °F -9.8 °F 17% 29.70 in 10.0 mi West 18.4 mph 35.7 mph N/A   Clear
12:35 PM 31.3 °F 19.2 °F -7.6 °F 19% 29.70 in 10.0 mi WNW 19.6 mph 33.4 mph N/A   Clear
12:55 PM 32.0 °F 20.5 °F -6.9 °F 19% 29.69 in 10.0 mi WNW 18.4 mph 39.1 mph N/A   Clear
1:15 PM 32.9 °F 20.4 °F -8.3 °F 17% 29.69 in 10.0 mi WNW 23.0 mph 38.0 mph N/A   Clear
1:35 PM 32.7 °F 25.7 °F -9.4 °F 16% 29.70 in 10.0 mi NNW 8.1 mph 34.5 mph N/A   Clear
1:55 PM 32.5 °F 22.3 °F -6.7 °F 18% 29.70 in 10.0 mi WNW 15.0 mph 32.2 mph N/A   Clear
2:15 PM 32.2 °F 22.7 °F -8.5 °F 17% 29.71 in 10.0 mi WNW 12.7 mph 35.7 mph N/A   Clear
2:35 PM 33.1 °F 21.5 °F -7.4 °F 17% 29.70 in 10.0 mi WNW 19.6 mph 40.3 mph N/A   Clear
2:55 PM 33.1 °F 23.9 °F -6.9 °F 18% 29.72 in 10.0 mi NW 12.7 mph 29.9 mph N/A   Clear
3:15 PM 32.9 °F 24.1 °F -7.8 °F 17% 29.72 in 10.0 mi NW 11.5 mph 28.8 mph N/A   Clear
3:35 PM 33.6 °F 26.2 °F -6.7 °F 18% 29.73 in 10.0 mi WNW 9.2 mph 23.0 mph N/A   Clear
3:55 PM 33.1 °F 21.5 °F -6.3 °F 18% 29.73 in 10.0 mi WNW 19.6 mph 34.5 mph N/A   Clear
4:15 PM 33.3 °F 28.9 °F -5.3 °F 19% 29.75 in 10.0 mi North 4.6 mph - N/A   Clear
4:35 PM 33.4 °F 26.6 °F -5.8 °F 18% 29.75 in 10.0 mi WNW 8.1 mph 16.1 mph N/A   Clear
4:55 PM 33.4 °F 25.4 °F -4.5 °F 20% 29.75 in 10.0 mi West 10.4 mph 18.4 mph N/A   Clear
5:15 PM 32.9 °F 23.2 °F -4.0 °F 21% 29.77 in 10.0 mi WNW 13.8 mph 26.5 mph N/A   Clear
5:35 PM 32.4 °F 21.7 °F -2.6 °F 22% 29.77 in 10.0 mi WNW 16.1 mph 27.6 mph N/A   Clear
5:55 PM 32.0 °F 20.5 °F -2.2 °F 23% 29.78 in 10.0 mi WNW 18.4 mph 28.8 mph N/A   Clear
6:15 PM 31.1 °F 24.5 °F -1.8 °F 24% 29.79 in 10.0 mi WNW 6.9 mph 24.2 mph N/A   Clear
6:35 PM 30.7 °F 23.3 °F -1.5 °F 25% 29.80 in 10.0 mi West 8.1 mph 24.2 mph N/A   Clear
6:55 PM 30.4 °F 20.5 °F -1.1 °F 26% 29.81 in 10.0 mi West 12.7 mph 23.0 mph N/A   Clear
7:15 PM 30.2 °F 19.8 °F -0.4 °F 27% 29.81 in 10.0 mi West 13.8 mph 21.9 mph N/A   Clear
7:35 PM 29.8 °F 21.5 °F -0.4 °F 27% 29.82 in 10.0 mi West 9.2 mph 12.7 mph N/A   Clear
7:55 PM 29.8 °F 20.9 °F 0.1 °F 28% 29.83 in 10.0 mi West 10.4 mph 18.4 mph N/A   Clear
8:15 PM 29.3 °F 23.2 °F -0.0 °F 28% 29.83 in 10.0 mi West 5.8 mph - N/A   Clear
8:35 PM 29.3 °F 23.2 °F -0.4 °F 28% 29.83 in 10.0 mi WNW 5.8 mph - N/A   Clear
8:55 PM 28.8 °F 23.7 °F -0.4 °F 29% 29.84 in 10.0 mi NW 4.6 mph - N/A   Clear
9:15 PM 28.4 °F 20.4 °F -0.4 °F 29% 29.84 in 10.0 mi WNW 8.1 mph - N/A   Clear
9:35 PM 28.2 °F 21.0 °F -0.4 °F 29% 29.85 in 10.0 mi NW 6.9 mph - N/A   Clear
9:55 PM 27.7 °F 21.3 °F 0.1 °F 31% 29.86 in 10.0 mi NW 5.8 mph 16.1 mph N/A   Clear
10:15 PM 27.3 °F 19.9 °F 0.5 °F 32% 29.87 in 10.0 mi NW 6.9 mph - N/A   Clear
10:35 PM 27.1 °F 18.9 °F -0.2 °F 31% 29.87 in 10.0 mi West 8.1 mph - N/A   Clear
10:55 PM 26.4 °F 16.6 °F -0.2 °F 32% 29.87 in 10.0 mi WNW 10.4 mph 16.1 mph N/A   Clear
11:15 PM 26.4 °F 16.0 °F -0.4 °F 31% 29.88 in 10.0 mi WNW 11.5 mph 19.6 mph N/A   Clear
11:35 PM 25.7 °F 16.4 °F 0.1 °F 33% 29.88 in 10.0 mi WNW 9.2 mph - N/A   Clear
11:55 PM 25.5 °F 16.2 °F -0.0 °F 33% 29.88 in 10.0 mi WNW 9.2 mph - N/A   Clear